Location: Jackson Park
(37.2862°N, 79.9123°W)
Time: 20:45:42
(UTC+00:00)

Vanguard 3 - Pass Details

Date: 11 May 2026
Orbit: 507 x 3205 km, 33.4° (Epoch: 31 May)

Event Time Altitude Azimuth Distance (km) Brightness Sun altitude
Rises 19:39:40 0° 237° (WSW) 6,847 12.4 53.2°
Reaches altitude 10° 19:44:05 10° 235° (SW) 5,989 12.4 52.3°
Maximum altitude 20:03:16 63° 160° (SSE) 3,300 10.9 48.7°
Drops below altitude 10° 20:18:51 10° 84° (E) 5,004 10.8 45.7°
Sets 20:22:09 0° 81° (E) 5,716 11.0 45.1°
